Tracking 17921 objects as of 18-January-2017
HD Live streaming from Space Station
objects crossing your sky now

OPS 5058 (DMSP 5B F2)

Track OPS 5058 (DMSP 5B F2) now!
10-day predictions
OPS 5058 (DMSP 5B F2) is classified as:


NORAD ID: 5903
Int'l Code: 1972-018A
Perigee: 782.7 km
Apogee: 855.4 km
Inclination: 99.0 °
Period: 101.1 minutes
Semi major axis: 7190 km
RCS: 1.4687 m2 (large)
Launch date: March 24, 1972
Source: United States (US)
Launch site: AIR FORCE WESTERN TEST RANGE (AFWTR)
Your satellite tracking list
Your tracking list is empty





NASA's NSSDC Master Catalog

Two Line Element Set (TLE):
1 05903U 72018A   17018.12829076 -.00000006  00000-0  17860-4 0  9990
2 05903  99.0092  81.5466 0050528 261.2740  98.2713 14.23983376401168
Source of the keplerian elements: AFSPC